Theta_e
303 303 304 305 307 296 302 304 299 302 309 305 299 299 302 299 296 293 301 299 302 307 308 310 311 311 312 314 315 317 319 323 330 330 332 335 336 337 337 338 338 341 342 343 343 345 345 346 347 347 351 353 354 355 355 356 357 358 358 359 359 359 360
303 305 304 304 305 307 304 298 302 308 310 308 302 293 297 294 291 296 297 295 297 299 296 308 310 309 310 312 313 314 318 324 327 328 332 334 336 337 339 339 340 341 342 342 342 344 345 346 346 348 352 353 355 355 355 355 356 356 357 358 358 359 359
302 304 305 304 306 308 304 303 311 301 296 295 301 299 290 290 290 292 296 298 298 300 300 305 306 308 310 313 315 314 315 321 324 327 331 335 336 337 338 338 340 340 341 341 342 343 345 346 348 349 351 351 353 354 354 354 355 356 356 356 358 359 360
300 301 302 297 301 306 307 308 305 308 304 300 297 298 299 298 292 292 293 296 294 302 303 305 306 310 311 312 315 314 315 319 323 327 329 332 335 336 337 338 339 339 340 341 341 342 343 345 346 347 348 349 350 351 354 354 355 356 357 357 358 358 359
299 296 301 299 300 300 302 302 301 303 303 306 305 304 299 296 294 293 293 292 297 304 308 307 308 310 315 314 316 320 318 319 322 327 329 332 334 335 337 338 339 339 340 341 341 343 343 345 347 347 347 348 348 350 351 352 353 354 354 355 357 358 359
296 298 300 299 298 298 297 298 300 301 301 298 295 294 303 300 296 292 293 292 300 306 312 310 309 311 313 317 317 319 320 320 323 325 329 333 334 336 337 338 339 339 341 341 341 342 343 344 344 344 345 347 348 349 350 351 352 353 353 354 357 358 358
295 298 300 301 300 300 299 300 299 299 300 300 298 292 297 300 300 301 299 295 299 311 315 313 312 313 313 314 318 317 318 321 322 325 327 332 335 335 336 338 338 339 341 341 341 342 342 343 344 344 345 345 346 348 349 350 350 351 352 354 356 358 358
297 299 301 302 302 301 299 299 299 298 296 296 295 296 298 297 300 297 298 295 300 309 314 313 314 318 314 315 311 314 318 320 322 324 326 331 335 337 336 337 338 340 341 343 344 343 343 343 345 344 344 345 346 347 348 349 349 351 352 353 355 358 358
293 296 299 298 299 300 296 295 297 296 297 297 297 298 300 295 298 299 297 292 299 308 320 320 317 316 313 311 313 314 313 316 319 323 327 331 337 339 336 337 338 340 340 342 344 344 344 345 343 344 344 345 345 347 348 348 349 351 352 354 354 356 356
284 284 286 290 293 293 295 295 295 296 295 295 296 296 299 292 299 301 297 298 305 310 316 315 316 316 319 318 314 313 315 318 319 321 322 331 336 339 338 338 339 338 341 343 344 346 345 344 343 346 347 345 345 347 348 349 350 351 352 353 354 354 354
288 291 289 290 293 293 291 293 294 294 295 296 296 297 295 294 300 297 301 303 303 306 308 312 313 315 314 316 319 314 315 318 321 326 328 329 333 337 337 339 339 343 345 345 346 348 345 343 344 345 344 344 345 348 348 349 350 351 352 353 354 354 354
291 292 291 292 292 290 292 292 292 295 294 295 294 293 295 300 296 293 302 305 301 303 307 310 314 316 319 317 318 317 321 324 322 324 332 333 330 333 338 339 340 341 344 346 346 347 344 343 345 345 345 345 345 348 347 348 350 351 352 353 354 354 354
291 292 292 293 292 292 292 292 293 293 295 295 293 294 296 297 295 295 303 307 305 306 307 309 312 318 316 314 314 316 316 315 319 324 322 322 326 331 333 339 342 342 342 344 346 345 345 345 345 345 345 346 347 350 349 350 350 351 354 354 355 354 355
290 291 291 293 292 292 292 293 294 294 294 295 295 296 298 298 298 300 302 305 304 308 309 310 318 324 324 322 321 320 320 316 319 318 320 317 319 322 329 335 338 342 343 344 346 347 347 344 345 344 346 347 348 347 347 348 350 351 354 355 355 354 354
289 291 293 293 292 292 291 293 294 295 295 296 297 299 305 308 306 302 301 302 303 311 321 322 324 327 324 322 325 327 330 330 327 325 322 319 318 319 326 332 338 341 343 344 346 347 347 347 347 345 347 348 347 346 348 348 350 351 354 356 354 354 355
287 291 291 292 292 292 292 292 294 295 295 297 303 304 309 308 306 306 303 302 304 317 320 323 326 327 326 324 335 338 339 339 339 335 331 327 324 322 321 327 334 340 340 343 344 345 344 345 346 347 349 348 348 346 347 347 349 351 352 353 353 355 357
285 290 291 290 291 292 290 292 295 297 299 304 306 308 310 310 310 308 305 304 314 315 320 319 322 325 327 325 336 336 338 340 339 340 341 339 332 327 326 326 332 335 338 341 344 343 344 344 345 346 348 346 347 348 349 350 351 351 350 351 353 356 357
286 289 290 292 289 284 287 303 304 303 302 304 304 306 306 308 309 307 310 311 314 315 316 317 319 323 327 328 332 339 340 339 340 341 342 344 341 333 330 328 328 335 340 342 344 344 346 346 345 346 348 348 349 350 351 352 351 352 352 352 354 355 356
284 289 290 287 283 286 300 302 305 306 306 306 306 307 308 307 308 308 309 310 311 313 314 316 320 324 328 333 331 330 340 341 340 340 341 343 345 339 332 332 332 339 343 345 346 346 345 345 347 347 348 349 351 350 351 351 352 354 353 353 355 356 356
289 286 286 279 284 297 298 303 304 306 307 306 308 307 307 307 307 307 306 308 311 311 312 314 317 320 326 335 335 335 341 342 341 340 341 343 344 341 334 335 338 343 340 342 343 345 346 345 345 347 348 348 348 349 352 351 351 353 354 356 356 356 356
282 285 286 287 295 294 302 302 301 301 300 302 304 302 304 306 308 305 305 307 310 310 311 313 315 320 328 333 337 341 340 341 343 344 343 345 346 342 338 337 339 346 346 347 345 350 347 346 346 346 347 348 348 349 349 350 352 352 353 354 353 356 355
288 284 283 285 285 284 294 301 304 305 307 307 307 305 302 305 307 306 305 305 308 308 308 310 312 321 331 330 331 336 338 340 343 345 346 349 347 338 335 341 344 347 347 347 350 346 347 346 347 348 349 348 349 349 349 349 351 350 351 353 355 357 355
287 284 281 282 282 287 299 300 303 306 308 309 310 305 300 304 306 305 305 305 306 307 306 306 312 323 324 323 327 330 334 337 342 344 346 348 347 339 337 340 341 343 347 347 347 349 348 345 348 350 349 349 349 349 350 349 349 350 351 354 355 355 355
285 285 283 282 289 287 298 301 302 306 310 309 307 295 296 301 307 305 305 304 305 307 307 307 309 308 307 312 321 329 333 336 341 344 345 346 347 341 340 341 345 349 352 351 346 346 345 349 350 350 349 348 349 349 349 349 349 351 353 356 357 357 357
284 285 284 287 290 296 304 303 307 309 310 307 297 292 297 306 305 305 306 306 307 309 307 306 303 307 310 313 319 328 332 334 337 342 346 348 349 347 341 342 349 348 349 347 345 344 349 354 349 349 349 349 351 353 352 351 351 353 357 360 360 359 359
282 284 283 285 291 298 305 307 310 309 304 295 295 300 307 306 304 306 307 307 308 309 307 307 307 309 311 315 322 324 328 331 334 339 343 346 348 350 351 353 349 347 344 348 347 346 353 351 350 351 353 353 355 354 353 352 355 356 359 360 360 359 359
286 285 284 283 281 296 307 307 306 306 299 297 302 305 307 307 305 306 307 308 309 309 307 308 308 310 310 312 315 319 325 329 331 336 339 341 344 347 349 350 352 348 346 345 344 348 349 349 351 353 353 353 354 355 353 356 356 358 359 359 360 360 360
282 283 282 284 295 301 305 303 296 300 302 306 306 305 303 306 306 306 307 308 311 312 308 307 309 309 306 308 311 314 321 327 329 333 338 340 342 344 346 349 351 353 353 353 352 351 350 353 355 355 354 354 354 354 354 359 359 360 362 361 362 360 360
289 288 292 297 301 306 304 304 302 303 305 307 307 305 305 304 306 310 309 309 311 313 311 310 310 307 306 308 311 313 319 324 327 329 333 338 340 342 343 345 349 352 353 354 353 353 354 355 357 356 357 355 355 354 359 362 359 359 360 360 360 359 358
296 297 298 300 301 304 304 304 305 305 304 306 306 305 304 305 308 310 308 309 310 310 312 310 310 308 306 307 309 311 315 321 325 328 331 335 340 341 343 345 347 349 351 354 355 354 356 357 356 357 358 359 356 359 364 363 362 362 360 360 360 359 359
290 287 297 297 296 298 304 303 305 307 307 306 307 306 306 306 309 310 308 308 308 308 311 310 309 308 306 307 309 310 311 316 321 324 328 332 336 339 340 343 347 347 350 349 350 352 352 357 360 360 361 362 365 365 363 365 363 363 362 361 359 360 360
288 291 295 296 298 299 304 302 300 304 307 308 308 308 309 307 308 309 309 309 308 309 307 308 307 308 308 307 308 308 310 314 319 322 326 330 334 339 342 344 346 346 347 347 348 349 349 352 357 359 361 362 364 365 366 367 365 365 364 361 358 359 359
293 295 296 297 299 302 302 299 300 301 302 303 304 307 308 307 306 306 309 310 309 307 308 309 307 307 308 309 310 309 309 312 317 322 325 330 333 337 340 344 345 344 346 346 347 347 348 351 353 355 357 359 361 363 365 366 367 364 364 363 363 364 363
288 290 293 296 290 291 299 301 301 301 303 304 303 304 307 306 305 306 307 308 310 310 310 309 308 306 308 310 312 310 309 312 318 324 326 329 333 337 341 345 345 345 346 346 346 345 347 350 352 353 354 356 359 361 365 367 366 363 363 362 362 363 364
288 295 297 298 297 297 298 299 301 302 303 303 302 302 304 307 307 307 307 306 307 308 308 310 308 308 309 311 312 311 310 313 321 326 327 329 332 335 339 342 344 345 346 346 348 346 347 350 350 351 352 354 357 358 361 366 369 368 365 361 360 360 361
296 298 298 299 297 295 298 301 303 302 303 302 301 302 303 306 308 308 308 308 307 307 309 310 310 309 310 312 312 311 311 314 322 327 329 330 331 334 336 337 340 342 344 345 345 346 349 349 350 351 350 351 354 355 359 362 367 369 368 365 362 360 360
295 300 301 301 300 301 302 303 303 303 304 304 302 301 302 304 308 309 308 308 309 309 308 308 310 312 311 313 311 311 311 313 322 327 329 330 329 330 331 334 334 338 342 346 347 347 348 350 350 350 350 350 352 353 357 358 362 365 367 367 366 365 364
Wind_Speed
3 5 6 3 6 12 10 12 16 14 7 9 10 5 3 3 4 13 5 7 12 5 10 9 9 11 11 10 13 15 16 14 12 13 14 16 17 18 19 20 20 21 20 21 21 21 20 20 21 22 20 19 20 18 18 19 19 18 19 19 18 16 16
4 6 6 8 8 6 6 12 13 6 7 10 9 10 5 10 12 5 7 13 11 9 10 11 11 9 11 11 12 15 17 13 14 14 14 15 17 20 22 22 21 21 21 23 23 21 23 23 24 22 20 19 18 18 20 20 19 19 19 19 18 17 16
4 7 5 7 10 10 11 8 10 10 10 12 12 7 13 12 13 9 8 6 11 10 10 5 16 17 14 12 10 13 14 11 15 14 16 16 18 17 16 18 17 18 19 20 21 24 25 24 22 22 20 21 19 19 20 21 22 21 21 18 18 15 16
5 4 2 10 11 11 5 1 11 11 4 10 11 13 6 5 11 6 9 9 11 9 11 10 8 12 17 16 9 11 13 13 14 14 15 15 15 16 17 18 19 21 22 24 26 25 25 25 24 22 24 21 23 22 20 20 20 19 19 19 17 17 17
3 6 5 4 3 5 13 13 10 7 9 2 9 8 13 10 9 10 7 7 7 8 8 12 14 13 11 14 12 9 11 13 15 14 14 14 16 16 16 18 20 22 23 24 24 23 23 22 20 20 22 23 23 21 21 22 22 21 21 20 18 16 15
5 2 5 4 1 3 3 3 3 3 10 11 13 14 11 13 11 7 7 11 3 2 4 11 16 15 13 11 12 10 12 13 13 12 13 13 14 16 17 19 20 20 21 22 21 20 18 18 20 23 22 21 22 23 22 22 21 20 21 20 18 17 16
5 7 4 5 6 6 3 4 2 5 4 5 8 11 9 12 13 10 11 10 11 4 1 5 9 11 14 13 11 13 11 11 12 12 14 14 16 17 18 19 19 19 20 20 20 21 23 24 23 25 22 22 23 24 23 22 22 22 22 21 18 16 16
10 10 3 5 3 7 7 4 3 4 3 4 4 4 6 5 8 10 10 13 6 7 10 13 13 8 10 7 8 9 10 8 10 11 12 13 12 13 15 15 15 16 16 16 16 18 18 18 17 21 21 21 21 21 22 21 23 23 22 19 18 17 17
4 7 5 4 5 5 4 1 2 3 4 5 7 7 5 4 7 11 9 15 5 6 6 7 12 12 8 11 10 8 11 11 9 7 5 7 8 8 12 14 15 15 16 18 17 19 19 19 19 20 21 21 21 21 21 22 22 22 21 18 18 18 19
11 12 11 7 2 3 4 1 1 3 6 9 6 4 3 6 5 10 11 10 3 2 2 5 9 10 11 6 5 5 9 10 10 9 6 5 5 7 11 12 13 16 17 16 16 17 16 18 20 19 18 20 21 21 22 21 20 20 20 18 19 18 19
7 5 4 1 4 5 3 5 8 7 3 3 2 2 3 7 4 7 9 6 7 5 6 10 11 9 12 6 5 7 7 7 7 7 7 8 9 9 11 12 13 13 12 14 16 16 17 21 20 19 21 21 20 19 21 21 20 20 19 18 18 18 19
12 12 8 6 7 9 9 10 11 9 7 3 4 4 5 7 7 11 3 5 11 11 8 6 6 7 6 7 7 7 5 5 5 5 6 8 8 10 10 11 12 14 15 15 16 17 19 19 18 18 19 20 21 19 21 20 19 18 16 17 18 18 18
12 11 10 7 7 9 9 10 12 13 10 7 7 10 11 10 8 7 11 12 5 4 7 10 12 13 13 14 14 10 7 7 7 7 8 9 9 9 12 13 14 15 16 16 16 18 18 19 19 20 19 19 17 16 18 18 18 20 18 17 18 18 17
13 12 10 8 10 10 11 11 12 12 12 12 11 12 13 13 13 9 13 15 20 10 13 11 11 12 12 13 11 9 9 9 7 8 9 12 13 13 12 14 16 16 17 17 17 17 17 20 20 20 18 18 18 19 20 20 19 19 16 17 17 18 18
10 9 8 10 10 10 12 12 12 13 13 12 11 10 11 10 11 15 17 15 17 7 3 9 12 11 9 9 7 8 8 8 8 9 12 14 15 16 15 14 16 16 17 17 16 17 18 19 20 20 18 18 19 22 19 19 19 18 18 16 17 17 17
9 4 7 7 6 8 12 14 14 13 10 9 4 3 4 6 6 6 7 11 9 5 12 12 12 11 9 9 7 7 7 9 9 10 12 13 14 16 17 16 16 16 17 17 18 20 22 22 21 18 16 16 18 20 20 20 19 18 18 18 18 17 15
10 6 2 4 5 7 12 14 15 13 10 5 1 2 2 6 5 6 8 5 9 12 11 14 14 13 12 8 5 7 9 10 11 13 14 14 15 16 16 16 15 17 19 20 21 22 22 21 21 22 20 20 19 19 19 19 17 18 19 19 17 15 15
6 3 6 5 6 11 9 6 8 1 7 5 4 3 4 8 7 4 6 9 11 12 13 12 15 14 14 10 8 6 9 11 13 14 14 15 15 16 16 17 17 17 15 16 18 21 21 22 24 23 22 21 18 18 17 16 19 17 17 17 16 16 15
6 6 8 7 12 10 5 1 5 6 3 2 3 7 9 11 12 14 13 13 14 14 14 14 15 17 17 14 12 10 10 11 12 15 17 15 14 14 14 14 16 15 16 15 16 17 19 20 17 17 16 16 15 16 17 18 18 15 17 17 15 15 15
7 7 6 6 7 2 4 2 3 9 3 7 5 9 11 13 12 12 12 14 14 16 16 16 15 16 17 12 8 6 10 12 14 16 16 16 15 14 12 12 12 12 17 18 19 18 17 18 18 18 18 18 18 18 17 18 17 16 16 15 15 15 15
7 6 7 10 8 3 7 6 3 6 5 7 7 3 6 13 12 14 12 14 16 18 18 18 18 17 12 7 4 5 15 16 16 16 17 16 16 15 13 11 11 9 9 9 11 11 13 17 17 18 17 18 18 17 18 17 17 17 16 15 16 16 17
10 9 7 8 5 5 5 5 4 3 5 6 7 4 2 10 13 13 13 14 16 18 20 21 23 19 6 1 5 13 18 17 16 16 15 13 12 11 12 8 8 10 11 12 13 15 15 16 16 16 18 18 17 17 18 17 17 18 18 18 16 16 17
7 9 10 7 5 2 6 3 6 6 7 6 7 5 4 6 11 14 14 14 16 15 17 20 19 11 3 7 9 14 19 18 14 14 15 14 12 9 9 9 10 12 11 14 15 14 16 16 15 16 19 20 18 17 17 18 19 18 18 16 16 17 17
10 7 9 9 5 1 1 6 9 11 9 7 6 8 4 8 10 12 13 14 16 16 17 16 12 12 9 12 12 17 18 16 14 14 14 14 12 8 4 7 10 12 13 14 16 18 18 15 15 17 18 18 19 17 16 18 18 18 18 17 17 15 15
10 11 10 9 8 3 7 8 11 10 7 4 8 5 4 6 9 11 11 13 13 13 15 14 11 10 9 13 18 19 16 15 15 14 13 11 10 8 4 5 10 11 13 15 17 20 15 14 17 18 17 16 15 14 15 15 17 18 15 12 13 14 14
9 8 10 10 8 3 9 9 7 7 4 5 3 4 3 7 8 9 10 12 12 12 12 11 10 12 16 17 14 15 16 15 14 14 15 14 13 11 9 7 3 10 12 13 16 17 14 16 17 16 15 14 12 13 14 16 17 13 11 12 12 13 13
5 6 9 7 8 3 12 8 2 9 4 3 5 3 5 5 6 9 11 11 13 13 12 12 12 15 16 13 14 15 15 15 15 15 16 16 15 14 11 8 8 1 8 12 16 16 16 18 16 15 16 16 14 14 15 16 13 12 13 13 13 13 13
6 8 10 5 3 6 8 7 4 3 4 5 5 5 5 5 6 7 9 10 11 12 13 13 15 17 17 18 21 19 18 17 18 17 16 17 15 14 12 11 8 6 5 4 6 10 12 11 12 13 16 14 14 15 16 10 11 11 11 12 12 13 13
4 5 5 3 3 3 4 5 4 3 4 5 6 5 4 6 6 7 5 10 12 14 15 13 14 16 16 15 14 13 14 12 12 14 14 16 17 16 15 13 10 7 6 6 6 6 5 8 8 10 12 14 14 15 10 10 11 12 12 12 12 13 13
6 12 13 13 3 2 5 3 2 4 4 4 5 5 4 6 7 6 7 9 10 12 13 13 14 13 15 16 17 17 16 15 14 14 13 16 17 18 16 16 13 10 8 8 9 9 7 5 6 7 8 10 14 11 9 10 11 11 12 12 12 13 13
4 3 5 2 7 6 3 4 1 0 2 3 3 4 4 5 7 7 9 10 12 13 12 13 14 15 15 15 15 15 16 16 16 14 14 12 13 15 16 16 14 13 12 11 11 11 9 7 5 5 6 5 6 7 8 9 10 11 11 12 11 11 12
4 4 11 11 8 5 3 5 4 5 4 5 3 2 2 3 7 7 8 10 10 11 12 14 14 15 14 14 15 15 15 14 13 13 13 14 15 14 15 15 15 14 14 13 12 12 11 8 7 7 6 6 5 6 7 7 8 9 11 12 13 13 14
7 8 4 8 7 4 6 5 5 5 3 4 8 7 4 4 4 7 8 8 10 11 12 14 14 15 15 13 14 14 13 13 14 16 16 14 14 14 16 13 14 13 13 13 12 13 11 9 9 10 9 8 6 5 5 6 7 9 9 11 11 11 11
5 3 2 8 5 3 4 8 9 6 5 5 7 7 4 3 5 5 7 9 9 9 10 13 13 13 13 14 14 15 13 14 15 19 18 14 15 15 14 12 14 14 14 13 12 11 9 7 7 7 7 6 5 4 5 7 7 8 8 7 7 8 8
7 7 10 10 10 12 13 13 13 10 7 6 9 8 7 6 4 4 7 10 9 10 11 11 13 13 12 15 13 12 11 13 16 16 16 15 14 13 14 13 14 13 11 11 11 11 9 7 7 7 7 6 5 5 4 3 5 7 8 8 7 7 7
14 13 12 11 10 11 11 11 12 11 8 8 12 13 9 9 6 3 5 7 9 10 9 10 11 14 15 15 15 12 9 11 15 16 15 14 12 12 12 12 12 12 11 10 11 10 8 7 7 7 7 7 6 5 5 4 2 4 6 7 7 7 7
10 10 11 11 12 14 14 15 14 13 14 12 12 14 12 10 8 5 6 6 7 9 10 9 10 11 14 16 17 14 10 10 13 14 15 16 16 13 12 13 13 11 10 7 8 9 9 7 7 7 7 7 7 6 5 3 1 2 3 5 7 7 6
Wind_Direction
152 66 345 291 221 219 185 189 207 216 192 202 225 263 240 5 263 252 201 225 246 299 280 252 231 239 242 235 226 222 224 210 186 195 198 199 199 196 195 196 194 191 186 185 190 191 189 188 190 192 190 185 183 182 183 186 189 186 188 190 192 193 193
134 342 304 251 255 271 137 207 210 144 177 219 222 238 196 229 243 227 177 223 236 215 252 203 229 222 238 232 225 222 223 197 187 200 198 198 198 197 196 195 191 185 185 187 190 191 190 190 190 188 186 181 181 182 185 186 187 188 188 189 192 192 191
299 323 295 243 231 228 229 243 144 183 183 202 205 225 231 226 230 243 220 212 246 222 224 159 212 233 241 239 221 227 225 198 202 204 202 199 198 198 195 192 186 184 188 188 191 194 193 191 187 188 183 184 186 187 188 189 190 191 189 190 192 192 191
316 285 184 221 200 203 247 53 193 203 218 213 194 206 259 241 248 238 241 190 241 216 237 237 237 224 230 241 237 225 227 203 204 207 205 197 193 197 197 193 191 190 191 191 191 192 191 190 187 186 184 187 190 189 186 190 191 189 189 191 190 192 192
259 205 199 199 18 199 200 212 218 180 223 6 226 204 215 217 238 239 249 243 224 225 211 236 238 234 235 232 228 224 218 217 215 208 198 194 194 197 197 194 194 193 194 195 193 192 193 191 186 184 186 190 191 190 190 190 189 188 189 190 190 190 188
217 153 74 112 354 322 297 322 255 265 223 199 201 224 203 225 228 234 223 243 240 185 175 219 219 223 228 229 236 232 222 216 218 216 205 194 193 198 195 196 196 194 193 194 192 190 189 188 186 186 189 188 188 190 191 189 190 189 190 189 191 188 188
271 287 311 318 278 244 260 253 302 345 315 323 230 227 206 210 232 242 245 273 249 212 247 205 245 254 233 232 221 229 235 232 221 214 210 202 198 197 196 195 196 194 190 187 186 182 183 187 187 186 187 188 190 191 189 189 190 192 192 191 189 185 186
269 265 303 110 84 154 148 132 26 359 42 10 334 332 353 291 214 204 228 240 254 183 215 258 266 232 254 294 286 274 261 242 230 217 206 204 198 201 199 198 196 193 186 177 177 179 181 182 183 185 189 190 189 189 190 189 191 191 190 189 186 184 185
223 206 132 127 72 81 68 22 18 22 345 322 303 267 263 252 231 231 218 245 224 194 187 204 237 264 234 237 244 237 250 269 276 284 254 223 209 192 192 190 187 181 179 174 179 182 183 184 184 185 187 187 186 188 188 190 191 188 187 187 186 185 188
191 194 203 201 164 358 336 243 295 333 339 350 346 217 189 245 214 227 238 246 221 203 182 225 238 249 272 244 219 226 235 246 254 258 256 242 225 197 194 188 175 182 187 186 187 187 187 187 187 183 184 184 186 186 188 188 186 185 186 185 185 184 187
279 5 33 287 255 317 291 306 309 314 341 332 303 276 271 239 348 251 244 277 276 255 207 218 225 237 252 271 185 206 229 240 245 256 247 219 203 202 202 189 188 188 186 187 186 186 186 188 188 185 187 187 186 184 185 186 186 185 183 182 182 182 185
264 291 309 327 305 285 288 298 299 307 304 294 257 231 232 19 340 262 236 255 266 256 259 273 285 278 255 244 243 242 241 239 240 240 237 239 219 205 186 186 187 189 194 190 187 186 187 187 185 183 187 188 187 182 181 183 183 182 180 179 178 180 183
273 275 282 287 280 260 266 278 284 292 296 276 253 250 253 262 248 265 326 312 288 313 290 309 322 352 332 322 318 332 334 303 278 279 283 276 258 227 197 189 189 194 193 191 185 184 186 184 181 182 184 185 183 177 179 181 182 183 176 174 176 178 181
277 270 266 256 258 269 271 267 273 274 281 278 266 267 264 250 246 245 256 279 282 280 280 300 316 314 308 304 306 303 293 285 282 272 259 253 249 242 223 200 199 197 196 191 186 182 179 183 181 182 182 181 180 175 181 182 183 182 173 174 175 180 185
280 271 252 241 242 264 273 270 269 274 272 271 265 266 271 277 258 244 251 260 270 290 341 321 305 298 292 288 294 310 312 312 301 282 263 252 245 242 230 214 201 199 195 189 182 179 182 183 178 183 181 179 181 184 182 181 180 180 176 169 174 181 187
284 272 246 231 240 253 268 272 269 265 260 250 226 237 337 322 296 285 251 245 255 346 334 323 309 299 298 307 315 319 321 319 312 292 283 274 262 252 242 228 211 201 197 185 179 182 186 185 182 181 177 173 177 185 184 184 181 179 179 177 181 184 184
271 272 269 271 271 273 265 256 246 241 239 236 204 180 336 12 325 264 240 251 6 319 332 321 313 309 303 300 308 329 320 311 302 293 286 281 272 259 248 240 223 206 197 188 183 186 184 182 182 181 175 177 181 183 180 180 176 178 180 181 180 180 181
274 323 297 258 241 232 233 45 41 177 213 190 187 137 26 21 12 322 311 311 327 332 327 320 309 304 299 294 286 308 327 317 310 302 294 284 276 267 255 243 225 206 193 189 185 181 180 180 183 178 175 179 177 177 171 166 171 177 176 179 178 180 179
271 309 308 251 231 229 84 353 14 354 204 12 284 123 65 27 13 4 348 340 338 336 323 310 302 295 287 277 267 271 313 320 309 304 298 291 280 271 256 235 218 192 178 180 180 179 181 179 172 167 171 171 164 168 170 170 172 169 171 176 176 177 180
269 281 244 234 227 82 353 122 73 4 280 332 270 137 57 33 22 4 345 335 335 334 325 315 305 294 287 278 255 255 319 328 319 312 307 303 297 280 257 227 206 189 185 184 184 182 177 170 174 172 169 171 172 173 171 171 175 174 172 174 173 176 180
241 243 242 245 341 327 125 127 43 6 354 332 329 214 74 31 23 9 344 336 343 343 333 324 312 303 285 239 173 355 344 334 323 315 309 305 296 282 259 224 201 176 167 159 172 154 164 171 170 170 166 168 169 170 173 175 173 174 176 177 181 182 186
229 253 271 270 247 228 150 104 53 307 315 303 284 274 150 30 15 3 353 348 350 345 339 336 325 303 232 347 350 352 343 332 325 322 315 311 303 283 259 214 170 156 155 151 144 163 165 170 168 164 162 163 163 166 172 173 172 176 180 184 182 181 186
214 227 243 250 228 180 93 100 333 326 315 297 282 236 193 22 3 354 357 352 351 349 345 340 338 0 56 6 342 341 332 325 332 333 329 328 327 307 253 200 171 161 146 152 151 152 158 164 165 158 161 163 162 163 171 174 177 180 185 183 182 183 186
226 236 238 241 253 248 66 346 341 332 322 293 236 220 182 5 10 348 355 353 344 346 349 349 358 20 358 324 324 318 316 315 351 346 340 341 345 337 259 192 160 139 134 134 152 157 164 165 156 157 163 167 172 171 173 174 178 185 186 185 181 179 181
224 232 254 270 280 302 351 341 334 331 327 286 211 208 62 1 7 347 348 347 342 341 347 359 352 332 307 285 289 301 308 344 351 351 354 358 2 10 356 157 137 146 153 155 161 166 163 149 159 164 164 165 168 167 169 176 189 190 182 167 163 172 179
217 230 247 249 270 349 350 343 344 358 308 215 196 61 8 17 357 345 342 340 345 343 345 341 326 306 301 286 284 310 343 348 349 353 4 9 18 29 33 28 127 158 164 161 160 159 149 155 160 162 160 163 159 164 176 190 194 180 159 165 174 177 179
216 223 246 248 248 50 359 343 54 18 312 46 30 23 42 14 9 342 340 337 339 350 338 334 316 307 308 314 330 340 344 348 349 356 10 16 21 25 25 32 20 72 160 166 168 160 161 164 162 159 161 164 167 172 186 192 177 170 164 173 172 174 176
181 210 219 226 4 16 5 37 60 16 12 28 33 20 3 359 12 356 329 330 326 335 342 329 327 323 329 338 352 344 346 349 355 360 11 18 22 28 34 34 31 34 69 102 122 145 160 161 156 157 164 164 170 181 192 167 167 163 162 167 167 173 176
215 231 238 5 323 65 47 64 103 107 55 42 34 22 2 345 9 347 317 326 326 330 337 327 332 333 340 338 333 336 330 332 347 355 359 16 24 27 34 40 43 47 68 84 102 109 116 140 155 163 168 166 170 181 169 153 168 167 168 167 170 178 180
282 278 271 275 309 59 107 93 106 112 104 77 54 26 357 343 335 332 333 326 323 327 328 337 332 339 331 334 338 342 341 345 353 355 1 5 15 21 23 24 29 56 85 85 90 94 84 114 146 158 170 167 170 169 146 160 166 163 164 167 172 178 181
323 222 166 317 329 324 176 136 146 118 113 76 38 37 13 340 321 334 332 330 323 325 329 338 332 329 334 333 337 342 347 349 348 352 356 358 1 15 19 22 23 41 63 84 89 91 83 55 92 131 149 151 128 126 153 157 161 163 168 170 174 176 183
256 293 327 329 322 297 151 84 39 11 25 355 351 331 355 11 342 317 319 332 325 330 333 335 330 327 332 341 343 343 345 345 345 351 352 356 359 1 15 22 24 33 46 58 72 86 87 81 72 70 76 86 116 138 151 161 164 165 169 175 182 186 186
281 283 275 342 315 153 149 139 69 24 10 344 334 322 325 346 346 329 325 329 326 327 326 327 330 327 336 343 341 340 338 342 349 353 353 352 355 3 11 17 23 30 31 43 53 65 71 76 88 91 93 99 112 134 153 162 166 176 181 178 181 182 184
300 294 30 13 347 275 221 265 303 323 302 284 298 311 290 311 311 333 326 320 317 317 326 328 325 325 330 336 342 343 345 341 348 357 356 350 353 2 10 25 30 27 27 32 42 49 48 38 48 54 61 59 60 86 132 160 173 177 167 167 176 186 187
287 306 305 304 285 273 269 273 284 290 272 272 286 289 284 271 255 311 319 309 317 323 333 328 327 323 326 327 333 340 352 345 350 353 358 355 354 357 5 13 21 22 17 18 24 37 43 37 42 43 46 42 45 40 27 83 155 160 164 169 177 185 179
279 279 284 287 277 270 279 284 285 282 272 276 280 282 276 267 256 261 288 294 307 310 310 316 330 325 325 325 329 331 359 357 353 353 354 356 360 1 6 8 7 11 14 11 19 24 23 26 37 37 44 38 23 22 26 24 43 150 162 169 175 179 179
284 293 291 285 281 277 271 269 270 270 269 264 265 266 263 257 250 233 243 263 281 293 306 314 326 321 323 326 328 327 348 359 356 1 0 356 356 360 2 1 0 352 358 1 13 21 23 20 30 35 40 29 14 12 8 8 354 154 162 169 165 164 167